Tracking 19817 objects as of 17-Aug-2019
HD Live streaming from Space Station
objects crossing your sky now

COSMOS 2251 DEB

Track COSMOS 2251 DEB now!
10-day predictions


NORAD ID: 34567
Int'l Code: 1993-036VD
Perigee: 771.2 km
Apogee: 882.0 km
Inclination: 74.0 °
Period: 101.3 minutes
Semi major axis: 7197 km
RCS: 0.051 m2 (small)
Launch date: June 16, 1993
Source: Commonwealth of Independent States (former USSR) (CIS)
Launch site: PLESETSK MISSILE AND SPACE COMPLEX (PKMTR)

Note: This is SATELLITE DEBRIS
aabbcc
Your satellite tracking list
Your tracking list is empty




NASA's NSSDC Master Catalog

Two Line Element Set (TLE):
1 34567U 93036VD  19228.74995139 +.00000062 +00000-0 +38908-4 0  9995
2 34567 074.0447 343.4676 0076960 252.0114 228.9158 14.21746086542790
Source of the keplerian elements: AFSPC